Terug naar catalogus

STARLINK-31017

ActiefCommunicatieVLEO
NORAD 58515·PAYLOAD·🇺🇸 United States

Gelanceerd Dec 7, 2023 vanaf Cape Canaveral Space Force Station

Loading…

Volgende Passages (komende 24 uur)

TLE

VersSource: CelesTrak SupGP

Epoch: Sep 15, 2026, 03:15 UTC

1 58515C 23191H   26258.13590278 -.00044705  00000+0 -16193-2 0  2589
2 58515  43.0028 241.2719 0001276 270.1847  45.8672 15.27598895    16

Volg STARLINK-31017 in realtime met AllMySat

Download on the App Store